"Pseudo-MPEC" for P11gUyr

Created 2021 Jun 11 7:07:18 UT using Find_Orb

Click here for an explanation of pseudo-MPECs

 
 Astrometry: 
     P11gUyr  C2021 06 08.35218 16 47 49.82 -01 20 20.5    ~6B6b 21.4 GVNEOCPG96
     P11gUyr  C2021 06 08.35735 16 47 49.28 -01 20 36.3    ~6B6b 21.4 GVNEOCPG96
     P11gUyr  C2021 06 08.36252 16 47 48.74 -01 20 53.3    ~6B6b 21.6 GVNEOCPG96
     P11gUyr  C2021 06 09.34340 16 46 13.39 -02 14 48.0    ~6B6M 21.4 GVNEOCPG96
     P11gUyr  C2021 06 09.35385 16 46 12.33 -02 15 22.2    ~6B6M 21.9 GVNEOCPG96
     P11gUyr  C2021 06 10AMpJpm$seR-A5EejFK$H.:[9xJ;/7O*dE.4l3.2Astrometrye;-F51
     P11gUyr  C2021 06 10T:ry`C%?Eh3Z'e_BuvLY`qhu!]P@R]Nm0M--S-u9g%LxTJgcvU8:F51
     P11gUyr  C2021 06 100uD*''Ytk`(ym.`hMD[TC50GMw2ekB:redacted;5'Bq:pR;n;U6F51
     P11gUyr  C2021 06 10=)[x7XgG%iOWU:HxU8YQcsG%suA;PX239d$clickqQPtU-PhereoF51
     P11gUyr KC2021 06 110N$a/eZ1DSe?OZJ-l]FVq-BG'w/1F?_%uFh`Zy*hd$=DNJjeJ'uaH21
     P11gUyr KC2021 06 11#viT+U$:4y:9OVforD=@HZ?P^coexplanation.dQ]KTYn/eIC=RH21
     P11gUyr KC2021 06 11.22510816 43 10.69 -04 00 11.8    ~6B67 21.12GVNEOCPI52
     P11gUyr KC2021 06 11.23101816 43 10.12 -04 00 32.2    ~6B67 21.35GVNEOCPI52
     P11gUyr KC2021 06 11.23692216 43 09.51 -04 00 52.2    ~6B67 20.68GVNEOCPI52
     P11gUyr KC2021 06 11.24282216 43 08.87 -04 01 12.5    ~6B67 21.61GVNEOCPI52

Station data:
(F51) Pan-STARRS 1, Haleakala  (N20.707235 W156.255910)  US/Hawaii.
   Observers N. Primak, A. Schultz, S. Watters, J. Thiel, T. Goggia. Measurer
   PS1 Science Consortium. 1.8-m Ritchey-Chrétien + CCD.
(G96) Mt. Lemmon Survey  (N32.442754 W110.788720)  US/Arizona.  Observers T.
   A. Pruyne, B. M. Africano, E. J. Christensen, G. A. Farneth, D. C. Fuls,
   A. R. Gibbs, A. D. Grauer, H. Gröller, J. A. Johnson, R. A. Kowalski, S.
   M. Larson, G. J. Leonard, D. Rankin, R. L. Seaman, F. C. Shelly. 1.5-m
   reflector + 10K CCD.
(H21) Astronomical Research Observatory, Westfield  (N39.483057 W87.968270)
   US/Illinois. 0.76-m f/3.0 astrograph + CCD.
(I52) Steward Observatory, Mt. Lemmon Station  (N32.442547 W110.788920)
   US/Arizona.  Observers T. A. Pruyne, B. M. Africano, E. J. Christensen, G.
   A. Farneth, D. C. Fuls, A. R. Gibbs, A. D. Grauer, H. Gröller, J. A.
   Johnson, R. A. Kowalski, S. M. Larson, G. J. Leonard, D. Rankin, R. L.
   Seaman, F. C. Shelly. 1.0-m reflector + CCD.

Orbital elements:  P11gUyr
   Perihelion 2021 Jun 14.355801 +/- 0.482452 TT =  8:32:21 (JD 2459379.855801)
Epoch 2021 Jun 11.0 TT = JDT 2459376.5   Earth MOID: 0.4996   Ma: 0.0599
M 359.24257242 +/- 0.0903368        (J2000 ecliptic)          AutoNEOCP
n   0.22570693 +/- 0.00993046       Peri.  170.47326 +/- 0.3291769
a   2.67160829 +/- 0.0783558        Node    86.60324 +/- 0.1122637
e   0.4343532 +/- 0.0137199         Incl.   32.28330 +/- 0.4647001
P   4.37                   H 21.5   G  0.15   U  9.6  
q 1.51118664 +/- 0.00748583    Q 3.83202995 +/- 0.145164
From 15 observations 2021 June 8-11; mean residual 0".23
Residuals in arcseconds: 
210608 G96  .17+  .71-    210610 F51  .30+  .15+    210611 H21  .14-  .03+    
210608 G96  .03+  .41+    210610 F51  .12+  .08+    210611 I52  .27-  .19+    
210608 G96  .11-  .32+    210610 F51  .09-  .04-    210611 I52  .31+  .11-    
210609 G96  .24-  .27-    210610 F51  .05-  .19-    210611 I52  .29+  .03-    
210609 G96  .00   .22+    210611 H21  .07-  .16+    210611 I52  .18-  .27-    

Ephemerides (geocentric):
Date (UTC) HH   RA              Dec         delta   r     elong  mag " sig PA
---- -- -- --  -------------   -----------  ------ ------ -----  --- ---- ---
2021 06 11 07  16 43 03.885   -04 03 48.25  .51855 1.5115 159.2 21.7 .113  19
2021 06 11 08  16 42 59.828   -04 06 09.98  .51851 1.5114 159.2 21.7 .113  23
2021 06 11 09  16 42 55.773   -04 08 31.77  .51848 1.5114 159.2 21.7 .113  27
2021 06 11 10  16 42 51.717   -04 10 53.62  .51845 1.5114 159.2 21.7 .114  32
2021 06 11 11  16 42 47.662   -04 13 15.53  .51841 1.5114 159.3 21.7 .115  36
2021 06 11 12  16 42 43.607   -04 15 37.50  .51838 1.5114 159.3 21.7 .118  41
2021 06 11 13  16 42 39.553   -04 17 59.54  .51835 1.5114 159.3 21.7 .121  45
2021 06 11 14  16 42 35.499   -04 20 21.63  .51832 1.5114 159.3 21.7 .126  50
2021 06 11 15  16 42 31.446   -04 22 43.79  .51829 1.5114 159.3 21.7 .131  54
2021 06 11 16  16 42 27.393   -04 25 06.00  .51826 1.5114 159.3 21.7 .137  58
2021 06 11 17  16 42 23.341   -04 27 28.28  .51823 1.5114 159.3 21.7 .144  61
2021 06 11 18  16 42 19.289   -04 29 50.61  .51820 1.5114 159.3 21.7 .152  64
2021 06 11 19  16 42 15.238   -04 32 13.01  .51817 1.5114 159.3 21.7 .160  67
2021 06 11 20  16 42 11.187   -04 34 35.46  .51814 1.5114 159.3 21.7 .169  70
2021 06 11 21  16 42 07.137   -04 36 57.97  .51812 1.5114 159.3 21.7 .179  73
2021 06 11 22  16 42 03.087   -04 39 20.54  .51809 1.5114 159.3 21.7 .189  75
2021 06 11 23  16 41 59.038   -04 41 43.17  .51806 1.5113 159.4 21.7 .200  77
2021 06 12 00  16 41 54.989   -04 44 05.85  .51804 1.5113 159.4 21.7 .212  79
2021 06 12 01  16 41 50.941   -04 46 28.59  .51801 1.5113 159.4 21.7 .224  81
2021 06 12 02  16 41 46.894   -04 48 51.38  .51799 1.5113 159.4 21.7 .236  82
2021 06 12 03  16 41 42.847   -04 51 14.24  .51796 1.5113 159.4 21.7 .249  84
2021 06 12 04  16 41 38.801   -04 53 37.14  .51794 1.5113 159.4 21.7 .263  85
2021 06 12 05  16 41 34.756   -04 56 00.11  .51792 1.5113 159.4 21.7 .277  86
2021 06 12 06  16 41 30.711   -04 58 23.12  .51789 1.5113 159.4 21.7 .291  87
2021 06 12 07  16 41 26.667   -05 00 46.19  .51787 1.5113 159.4 21.7 .306  88
2021 06 12 08  16 41 22.624   -05 03 09.32  .51785 1.5113 159.4 21.7 .321  89
2021 06 12 09  16 41 18.581   -05 05 32.50  .51783 1.5113 159.4 21.7 .337  90
2021 06 12 10  16 41 14.539   -05 07 55.73  .51781 1.5113 159.4 21.7 .353  91
2021 06 12 11  16 41 10.498   -05 10 19.02  .51779 1.5113 159.4 21.7 .370  91
2021 06 12 12  16 41 06.458   -05 12 42.35  .51777 1.5113 159.4 21.7 .387  92
2021 06 12 13  16 41 02.418   -05 15 05.74  .51775 1.5113 159.4 21.7 .404  93
2021 06 12 14  16 40 58.379   -05 17 29.19  .51773 1.5113 159.4 21.7 .422  93
2021 06 12 15  16 40 54.341   -05 19 52.68  .51772 1.5113 159.4 21.7 .440  94
2021 06 12 16  16 40 50.304   -05 22 16.22  .51770 1.5113 159.4 21.7 .458  94
2021 06 12 17  16 40 46.267   -05 24 39.81  .51768 1.5113 159.4 21.7 .477  94
2021 06 12 18  16 40 42.232   -05 27 03.46  .51767 1.5113 159.5 21.7 .496  95
2021 06 12 19  16 40 38.197   -05 29 27.15  .51765 1.5113 159.5 21.7 .516  95
2021 06 12 20  16 40 34.163   -05 31 50.89  .51764 1.5113 159.5 21.7 .535  95
2021 06 12 21  16 40 30.130   -05 34 14.69  .51762 1.5112 159.5 21.7 .556  96
2021 06 12 22  16 40 26.098   -05 36 38.53  .51761 1.5112 159.5 21.7 .576  96
2021 06 12 23  16 40 22.067   -05 39 02.41  .51760 1.5112 159.5 21.7 .598  96
2021 06 13 00  16 40 18.036   -05 41 26.35  .51758 1.5112 159.5 21.7 .619  96
2021 06 13 01  16 40 14.007   -05 43 50.33  .51757 1.5112 159.5 21.7 .641  97
2021 06 13 02  16 40 09.979   -05 46 14.36  .51756 1.5112 159.5 21.7 .663  97
2021 06 13 03  16 40 05.951   -05 48 38.44  .51755 1.5112 159.5 21.7 .685  97
2021 06 13 04  16 40 01.925   -05 51 02.56  .51754 1.5112 159.5 21.7 .708  97
2021 06 13 05  16 39 57.899   -05 53 26.73  .51753 1.5112 159.5 21.7 .732  97
2021 06 13 06  16 39 53.875   -05 55 50.94  .51752 1.5112 159.5 21.7 .755  97